Weather History for Roxboro, NC

Change the Weather History Date:

Tuesday, February 26, 2013

  Actual Average Record
Temperature  
Mean Temperature 42 °F -  
Max Temperature 53 °F 52 °F 73 °F (2002)
Min Temperature 32 °F 27 °F 7 °F (1967)
Degree Days  
Heating Degree Days 22    
Moisture  
Dew Point 39 °F    
Average Humidity 93    
Maximum Humidity 100    
Minimum Humidity 75    
Precipitation  
Precipitation 0.38 in - - ()
Sea Level Pressure  
Sea Level Pressure 29.85 in    
Wind  
Wind Speed 7 mph (ENE)    
Max Wind Speed 18 mph    
Max Gust Speed 28 mph    
Visibility 6 miles    
Events Fog , Rain    
Averages and records for this station are not official NWS values.
T = Trace of Precipitation, MM = Missing Value Source: NWS Daily Summary

Daily Weather History Graph

Daily Weather History Graph

Search for Another Location

Airport:

Trip Planner

Search our weather history database for the weather conditions in past years. The results will help you decide how hot, cold, wet, or windy it might be!

Date:

Astronomy

Feb. 26, 2013 Rise Set
Actual Time 6:49 AM EST 6:08 PM EST
Civil Twilight 6:24 AM EST 6:34 PM EST
Nautical Twilight 5:54 AM EST 7:03 PM EST
Astronomical Twilight 5:24 AM EST 7:33 PM EST
Moon 7:19 PM EST (2/26) 6:54 AM EST (2/26)
Length of Visible Light 12h 09m
Length of Day
11h 18m
Full, 99% of the Moon is Illuminated
Feb 26
Full
Mar 4
Last Quarter
Mar 11
New
Mar 19
First Quarter
Mar 27
Full

Hourly Weather History & Observations

Time (EST) Temp. Windchill Dew Point Humidity Pressure Visibility Wind Dir Wind Speed Gust Speed Precip Events Conditions
12:15 AM 32.0 °F 28.7 °F 26.6 °F 80% 30.17 in 10.0 mi ENE 3.5 mph - N/A   Clear
12:35 AM 32.0 °F 28.7 °F 24.8 °F 75% 30.16 in 10.0 mi ENE 3.5 mph - N/A   Scattered Clouds
12:55 AM 32.0 °F 28.7 °F 24.8 °F 75% 30.17 in 10.0 mi ENE 3.5 mph - N/A   Scattered Clouds
1:15 AM 32.0 °F - 26.6 °F 80% 30.17 in 10.0 mi Calm Calm - N/A   Mostly Cloudy
1:35 AM 33.8 °F - 28.4 °F 81% 30.15 in 10.0 mi Calm Calm - N/A   Overcast
1:55 AM 33.8 °F 29.6 °F 26.6 °F 75% 30.15 in 10.0 mi NE 4.6 mph - N/A   Overcast
2:15 AM 33.8 °F 29.6 °F 26.6 °F 75% 30.14 in 10.0 mi ENE 4.6 mph - N/A   Overcast
2:35 AM 33.8 °F 27.7 °F 26.6 °F 75% 30.13 in 10.0 mi ENE 6.9 mph - N/A   Overcast
2:55 AM 33.8 °F 27.7 °F 26.6 °F 75% 30.12 in 10.0 mi ENE 6.9 mph - N/A   Overcast
3:15 AM 33.8 °F 27.0 °F 26.6 °F 75% 30.12 in 10.0 mi ENE 8.1 mph - N/A   Overcast
3:35 AM 33.8 °F 26.4 °F 26.6 °F 75% 30.10 in 10.0 mi ENE 9.2 mph - N/A   Overcast
3:55 AM 33.8 °F 27.0 °F 26.6 °F 75% 30.09 in 10.0 mi East 8.1 mph - N/A   Overcast
4:15 AM 33.8 °F 26.4 °F 26.6 °F 75% 30.07 in 10.0 mi ENE 9.2 mph - N/A   Overcast
4:35 AM 33.8 °F 27.0 °F 26.6 °F 75% 30.08 in 10.0 mi ENE 8.1 mph - N/A   Overcast
4:55 AM 33.8 °F 25.8 °F 26.6 °F 75% 30.09 in 10.0 mi ENE 10.4 mph - N/A   Overcast
5:15 AM 33.8 °F 25.3 °F 26.6 °F 75% 30.07 in 10.0 mi ENE 11.5 mph - N/A   Overcast
5:35 AM 33.8 °F 25.8 °F 28.4 °F 81% 30.08 in 10.0 mi NE 10.4 mph - N/A   Overcast
5:55 AM 33.8 °F 25.8 °F 28.4 °F 81% 30.06 in 10.0 mi NE 10.4 mph 17.3 mph N/A   Overcast
6:15 AM 33.8 °F 26.4 °F 28.4 °F 81% 30.07 in 10.0 mi ENE 9.2 mph - N/A   Overcast
6:35 AM 33.8 °F 27.0 °F 28.4 °F 81% 30.06 in 10.0 mi NE 8.1 mph - N/A   Overcast
6:55 AM 33.8 °F 27.0 °F 28.4 °F 81% 30.05 in 10.0 mi ENE 8.1 mph - N/A   Overcast
7:15 AM 33.8 °F 27.7 °F 30.2 °F 87% 30.05 in 10.0 mi ENE 6.9 mph - N/A Rain Rain
7:35 AM 33.8 °F 25.8 °F 32.0 °F 93% 30.05 in 5.0 mi ENE 10.4 mph - N/A Rain Rain
7:55 AM 33.8 °F 26.4 °F 32.0 °F 93% 30.04 in 4.0 mi NE 9.2 mph - N/A Rain Light Rain
8:15 AM 33.8 °F 25.3 °F 32.0 °F 93% 30.03 in 5.0 mi ENE 11.5 mph 16.1 mph N/A Rain Light Rain
8:35 AM 33.8 °F 24.8 °F 33.8 °F 100% 30.03 in 5.0 mi NE 12.7 mph - N/A Rain Light Rain
8:55 AM 33.8 °F 25.8 °F 33.8 °F 100% 30.02 in 4.0 mi ENE 10.4 mph - 0.01 in Rain Light Rain
9:15 AM 33.8 °F 26.4 °F 33.8 °F 100% 30.00 in 3.0 mi ENE 9.2 mph - 0.01 in Rain Light Rain
9:35 AM 35.6 °F 28.0 °F 35.6 °F 100% 29.98 in 2.5 mi ENE 10.4 mph - 0.03 in Rain Rain
9:55 AM 35.6 °F 28.0 °F 35.6 °F 100% 29.97 in 2.5 mi ENE 10.4 mph 19.6 mph 0.05 in Rain Rain
10:15 AM 35.6 °F 26.6 °F 35.6 °F 100% 29.96 in 3.0 mi East 13.8 mph - N/A Rain Light Rain
10:35 AM 35.6 °F 27.1 °F 35.6 °F 100% 29.95 in 5.0 mi ENE 12.7 mph 17.3 mph 0.01 in Rain Rain
10:55 AM 37.4 °F 29.3 °F 37.4 °F 100% 29.92 in 2.0 mi East 12.7 mph 21.9 mph 0.04 in Rain Light Rain
11:15 AM 37.4 °F 28.5 °F 37.4 °F 100% 29.90 in 5.0 mi East 15.0 mph 20.7 mph 0.01 in Rain Light Rain
11:35 AM 39.2 °F 30.8 °F 39.2 °F 100% 29.87 in 7.0 mi East 15.0 mph 23.0 mph 0.02 in Rain Rain
11:55 AM 41.0 °F 33.5 °F 41.0 °F 100% 29.87 in 7.0 mi East 13.8 mph 21.9 mph 0.04 in Rain Light Rain
12:15 PM 41.0 °F 33.5 °F 41.0 °F 100% 29.84 in 7.0 mi East 13.8 mph 20.7 mph 0.02 in Rain Light Rain
12:35 PM 42.8 °F 35.1 °F 42.8 °F 100% 29.81 in 7.0 mi East 16.1 mph 20.7 mph 0.05 in Rain Light Rain
12:55 PM 42.8 °F 35.8 °F 42.8 °F 100% 29.78 in 7.0 mi East 13.8 mph 20.7 mph 0.07 in Rain Light Rain
1:15 PM 44.6 °F 37.2 °F 44.6 °F 100% 29.75 in 10.0 mi East 17.3 mph 27.6 mph N/A   Light Drizzle
1:35 PM 44.6 °F 37.4 °F 44.6 °F 100% 29.74 in 10.0 mi East 16.1 mph 25.3 mph N/A Rain Light Rain
1:55 PM 46.4 °F 40.1 °F 46.4 °F 100% 29.72 in 10.0 mi ESE 15.0 mph 23.0 mph 0.01 in   Drizzle
2:15 PM 46.4 °F 39.8 °F 46.4 °F 100% 29.69 in 5.0 mi East 16.1 mph 25.3 mph 0.03 in Rain Rain
2:35 PM 48.2 °F - 48.2 °F 100% 29.68 in 10.0 mi ESE 15.0 mph 23.0 mph 0.06 in Rain Light Rain
2:55 PM 50.0 °F - 50.0 °F 100% 29.66 in 3.0 mi ESE 17.3 mph 23.0 mph 0.08 in Rain Heavy Rain
3:15 PM 50.0 °F - 50.0 °F 100% 29.64 in 3.0 mi ESE 18.4 mph 26.5 mph 0.02 in Rain Heavy Rain
3:35 PM 50.0 °F - 50.0 °F 100% 29.63 in 4.0 mi ESE 17.3 mph 25.3 mph 0.04 in Rain Heavy Rain
3:55 PM 50.0 °F - 50.0 °F 100% 29.61 in 10.0 mi ESE 12.7 mph 20.7 mph 0.04 in   Overcast
4:15 PM 50.0 °F - 50.0 °F 100% 29.60 in 3.0 mi ESE 11.5 mph 18.4 mph 0.01 in Rain Heavy Rain
4:35 PM 51.8 °F - 51.8 °F 100% 29.59 in 4.0 mi ESE 10.4 mph 16.1 mph 0.03 in Rain Light Rain
4:55 PM 51.8 °F - 51.8 °F 100% 29.59 in 10.0 mi SE 5.8 mph - 0.04 in Rain Light Rain
5:15 PM 51.8 °F - 51.8 °F 100% 29.60 in 10.0 mi Calm Calm - N/A Rain Rain
5:35 PM 51.8 °F - 51.8 °F 100% 29.59 in 10.0 mi ESE 4.6 mph - N/A   Light Drizzle
5:55 PM 53.6 °F - 53.6 °F 100% 29.59 in 10.0 mi ESE 4.6 mph - N/A   Overcast
6:15 PM 53.6 °F - 53.6 °F 100% 29.60 in 10.0 mi WNW 4.6 mph - N/A   Overcast
6:35 PM 53.6 °F - 53.6 °F 100% 29.61 in 10.0 mi WNW 4.6 mph - N/A   Overcast
6:55 PM 51.8 °F - 51.8 °F 100% 29.61 in 7.0 mi NNW 3.5 mph - N/A   Overcast
7:15 PM 51.8 °F - 51.8 °F 100% 29.60 in 4.0 mi Calm Calm - N/A   Overcast
7:35 PM 51.8 °F - 51.8 °F 100% 29.61 in 0.8 mi Calm Calm - N/A   Overcast
7:55 PM 51.8 °F - 51.8 °F 100% 29.62 in 0.5 mi Calm Calm - N/A Fog Fog
8:15 PM 51.8 °F - 51.8 °F 100% 29.63 in 0.5 mi Calm Calm - N/A Fog Fog
8:35 PM 50.0 °F - 50.0 °F 100% 29.63 in 1.0 mi WNW 4.6 mph - N/A   Overcast
8:55 PM 46.4 °F 42.4 °F 46.4 °F 100% 29.64 in 1.0 mi WNW 8.1 mph - N/A   Overcast
9:15 PM 46.4 °F 44.3 °F 46.4 °F 100% 29.65 in 1.0 mi WNW 4.6 mph - N/A   Overcast
9:35 PM 44.6 °F - 44.6 °F 100% 29.64 in 0.8 mi Calm Calm - N/A   Overcast
9:55 PM 44.6 °F - 44.6 °F 100% 29.65 in 0.8 mi Calm Calm - N/A   Overcast
10:15 PM 44.6 °F - 44.6 °F 100% 29.64 in 0.5 mi Calm Calm - N/A Fog Fog
10:35 PM 42.8 °F 41.1 °F 42.8 °F 100% 29.64 in 0.5 mi West 3.5 mph - N/A Fog Fog
10:55 PM 42.8 °F 41.1 °F 42.8 °F 100% 29.65 in 0.5 mi West 3.5 mph - N/A Fog Fog
11:15 PM 42.8 °F 41.1 °F 42.8 °F 100% 29.64 in 1.0 mi WNW 3.5 mph - N/A   Overcast
11:35 PM 42.8 °F 39.3 °F 42.8 °F 100% 29.65 in 1.2 mi WSW 5.8 mph - N/A   Overcast
11:55 PM 41.0 °F 36.4 °F 41.0 °F 100% 29.63 in 3.0 mi WSW 6.9 mph - N/A   Overcast